Weather History for Shawano, WI

Change the Weather History Date:

Friday, January 11, 2013

  Actual Average (KGRB) Record (KGRB)
Temperature  
Mean Temperature 38 °F 16 °F  
Max Temperature 44 °F 24 °F 51 °F (2012)
Min Temperature 33 °F 9 °F -25 °F (1979)
Degree Days  
Heating Degree Days 26 49  
Month to date heating degree days 529  
Since 1 July heating degree days 3619  
Cooling Degree Days 0 0  
Month to date cooling degree days 0  
Year to date cooling degree days 0  
Moisture  
Dew Point 36 °F    
Average Humidity 96    
Maximum Humidity 100    
Minimum Humidity 87    
Precipitation  
Precipitation 0.08 in 0.04 in 0.52 in (1890)
Month to date precipitation 0.43  
Year to date precipitation 0.43  
Snow  
Snow 0.00 in 0.40 in 5.20 in (1890)
Month to date snowfall 4.4  
Since 1 July snowfall 21.7  
Snow Depth -    
Sea Level Pressure  
Sea Level Pressure 29.66 in    
Wind  
Wind Speed 3 mph (South)    
Max Wind Speed 7 mph    
Max Gust Speed -    
Visibility 2 miles    
Events Fog , Rain    
T = Trace of Precipitation, MM = Missing Value Source: NWS Daily Summary

Daily Weather History Graph

Daily Weather History Graph

Search for Another Location

Airport:

Trip Planner

Search our weather history database for the weather conditions in past years. The results will help you decide how hot, cold, wet, or windy it might be!

Date:

Astronomy

Jan. 11, 2013 Rise Set
Actual Time 7:29 AM CST 4:35 PM CST
Civil Twilight 6:57 AM CST 5:07 PM CST
Nautical Twilight 6:20 AM CST 5:44 PM CST
Astronomical Twilight 5:45 AM CST 6:19 PM CST
Moon 7:01 AM CST (1/11) 4:55 PM CST (1/11)
Length of Visible Light 10h 10m
Length of Day
9h 05m
Waning Crescent, 0% of the Moon is Illuminated
Jan 11
Waning Crescent
Jan 11
New
Jan 18
First Quarter
Jan 26
Full
Feb 3
Last Quarter

Hourly Weather History & Observations

Time (CST) Temp. Windchill Dew Point Humidity Pressure Visibility Wind Dir Wind Speed Gust Speed Precip Events Conditions
12:15 AM 35.6 °F 31.7 °F 33.8 °F 93% 29.91 in 4.0 mi SE 4.6 mph - 0.02 in Rain Light Rain
12:35 AM 35.6 °F 32.8 °F 33.8 °F 93% 29.89 in 5.0 mi ESE 3.5 mph - 0.04 in Rain Light Rain
12:55 AM 35.6 °F 31.7 °F 33.8 °F 93% 29.86 in 5.0 mi ESE 4.6 mph - 0.06 in Rain Light Rain
1:15 AM 35.6 °F 31.7 °F 33.8 °F 93% 29.85 in 5.0 mi East 4.6 mph - N/A   Drizzle
1:35 AM 35.6 °F 31.7 °F 33.8 °F 93% 29.84 in 5.0 mi ESE 4.6 mph - N/A   Drizzle
1:55 AM 35.6 °F 30.7 °F 33.8 °F 93% 29.82 in 5.0 mi East 5.8 mph - N/A   Drizzle
2:15 AM 35.6 °F 30.7 °F 33.8 °F 93% 29.80 in 4.0 mi East 5.8 mph - 0.02 in Rain Light Rain
2:35 AM 35.6 °F - 33.8 °F 93% 29.81 in 5.0 mi Calm Calm - 0.02 in Rain Light Rain
2:55 AM 35.6 °F - 33.8 °F 93% 29.80 in 2.0 mi Calm Calm - 0.02 in   Light Drizzle
3:15 AM 35.6 °F 31.7 °F 33.8 °F 93% 29.78 in 0.8 mi ESE 4.6 mph - N/A   Overcast
3:35 AM 35.6 °F - 33.8 °F 93% 29.76 in 0.2 mi Calm Calm - N/A Fog Fog
3:55 AM 33.8 °F 30.8 °F 33.8 °F 100% 29.75 in 0.2 mi ENE 3.5 mph - N/A Fog Fog
4:15 AM 33.8 °F 29.6 °F 33.8 °F 100% 29.72 in 0.2 mi ENE 4.6 mph - N/A Fog Fog
4:35 AM 33.8 °F 30.8 °F 33.8 °F 100% 29.71 in 0.2 mi ENE 3.5 mph - N/A Fog Fog
4:55 AM 33.8 °F 30.8 °F 33.8 °F 100% 29.71 in 0.2 mi NE 3.5 mph - N/A Fog Fog
5:15 AM 33.8 °F 30.8 °F 33.8 °F 100% 29.70 in 0.2 mi East 3.5 mph - N/A Fog Fog
6:15 AM 33.8 °F - 33.8 °F 100% 29.69 in 0.2 mi Calm Calm - N/A Fog Fog
6:35 AM 33.8 °F - 33.8 °F 100% 29.69 in 0.2 mi Calm Calm - N/A Fog Fog
6:55 AM 33.8 °F - 33.8 °F 100% 29.68 in 0.2 mi Calm Calm - N/A Fog Fog
7:15 AM 33.8 °F - 33.8 °F 100% 29.68 in 0.2 mi Calm Calm - N/A Fog Fog
7:35 AM 33.8 °F - 33.8 °F 100% 29.68 in 0.2 mi Calm Calm - N/A Fog Fog
8:15 AM 33.8 °F - 33.8 °F 100% 29.69 in 0.2 mi Calm Calm - N/A Fog Fog
8:35 AM 33.8 °F - 33.8 °F 100% 29.67 in 0.2 mi Calm Calm - N/A   Drizzle
8:55 AM 33.8 °F - 33.8 °F 100% 29.66 in 0.2 mi Calm Calm - N/A Fog Fog
9:15 AM 33.8 °F - 33.8 °F 100% 29.65 in 0.2 mi Calm Calm - N/A Fog Fog
9:35 AM 33.8 °F - 33.8 °F 100% 29.64 in 0.2 mi Calm Calm - N/A Fog Fog
9:55 AM 35.6 °F - 33.8 °F 93% 29.64 in 0.8 mi Calm Calm - N/A   Overcast
10:15 AM 35.6 °F - 33.8 °F 93% 29.64 in 0.5 mi Calm Calm - N/A Fog Fog
10:35 AM 35.6 °F - 35.6 °F 100% 29.65 in 2.0 mi Calm Calm - N/A   Overcast
10:55 AM 37.4 °F 33.8 °F 35.6 °F 93% 29.65 in 2.5 mi WSW 4.6 mph - N/A   Overcast
11:35 AM 37.4 °F 34.9 °F 37.4 °F 100% 29.64 in 4.0 mi SW 3.5 mph - N/A   Overcast
11:55 AM 37.4 °F 33.8 °F 37.4 °F 100% 29.62 in 5.0 mi WSW 4.6 mph - N/A   Overcast
12:15 PM 37.4 °F 33.8 °F 37.4 °F 100% 29.62 in 4.0 mi WSW 4.6 mph - N/A   Overcast
12:35 PM 37.4 °F 33.8 °F 37.4 °F 100% 29.62 in 4.0 mi WSW 4.6 mph - N/A   Overcast
12:55 PM 39.2 °F 35.0 °F 37.4 °F 93% 29.62 in 4.0 mi SW 5.8 mph - N/A   Overcast
1:15 PM 39.2 °F 37.0 °F 37.4 °F 93% 29.63 in 1.5 mi SW 3.5 mph - N/A   Overcast
1:35 PM 39.2 °F 37.0 °F 37.4 °F 93% 29.64 in 1.5 mi SW 3.5 mph - N/A   Overcast
1:55 PM 39.2 °F - 37.4 °F 93% 29.64 in 2.5 mi Calm Calm - N/A   Overcast
2:15 PM 39.2 °F - 37.4 °F 93% 29.64 in 4.0 mi Calm Calm - N/A   Overcast
2:35 PM 39.2 °F 37.0 °F 37.4 °F 93% 29.64 in 5.0 mi South 3.5 mph - N/A   Overcast
2:55 PM 39.2 °F 37.0 °F 37.4 °F 93% 29.63 in 1.2 mi South 3.5 mph - N/A   Overcast
3:15 PM 39.2 °F 37.0 °F 37.4 °F 93% 29.63 in 1.8 mi SSW 3.5 mph - N/A   Overcast
3:35 PM 39.2 °F 35.9 °F 37.4 °F 93% 29.63 in 1.5 mi South 4.6 mph - N/A   Overcast
3:55 PM 39.2 °F 37.0 °F 37.4 °F 93% 29.64 in 1.5 mi South 3.5 mph - N/A   Overcast
4:15 PM 39.2 °F 37.0 °F 37.4 °F 93% 29.62 in 1.2 mi South 3.5 mph - N/A   Overcast
4:35 PM 39.2 °F 35.9 °F 37.4 °F 93% 29.63 in 1.2 mi South 4.6 mph - N/A   Overcast
4:55 PM 37.4 °F 34.9 °F 37.4 °F 100% 29.61 in 1.5 mi SSE 3.5 mph - N/A   Overcast
5:15 PM 37.4 °F 34.9 °F 37.4 °F 100% 29.62 in 1.8 mi South 3.5 mph - N/A   Overcast
5:35 PM 37.4 °F 33.8 °F 37.4 °F 100% 29.64 in 3.0 mi SSW 4.6 mph - N/A   Overcast
5:55 PM 37.4 °F 34.9 °F 37.4 °F 100% 29.64 in 1.5 mi SSW 3.5 mph - N/A   Overcast
6:15 PM 37.4 °F 34.9 °F 37.4 °F 100% 29.65 in 1.2 mi South 3.5 mph - N/A   Overcast
6:35 PM 39.2 °F 37.0 °F 37.4 °F 93% 29.63 in 1.2 mi South 3.5 mph - N/A   Overcast
6:55 PM 39.2 °F - 37.4 °F 93% 29.63 in 0.5 mi Calm Calm - N/A Fog Fog
7:15 PM 39.2 °F 35.0 °F 37.4 °F 93% 29.62 in 0.5 mi SSE 5.8 mph - N/A Fog Fog
7:35 PM 39.2 °F - 37.4 °F 93% 29.62 in 0.2 mi Calm Calm - N/A Fog Fog
7:55 PM 39.2 °F - 37.4 °F 93% 29.62 in 0.2 mi Calm Calm - N/A Fog Fog
8:15 PM 41.0 °F - 37.4 °F 87% 29.61 in 0.2 mi Calm Calm - N/A Fog Fog
8:35 PM 41.0 °F 37.1 °F 39.2 °F 93% 29.59 in 0.2 mi SSE 5.8 mph - N/A Fog Fog
8:55 PM 41.0 °F 36.4 °F 41.0 °F 100% 29.59 in 0.2 mi SSE 6.9 mph - N/A Fog Fog
9:15 PM 41.0 °F 39.0 °F 41.0 °F 100% 29.59 in 0.2 mi SSE 3.5 mph - N/A Fog Fog
9:35 PM 39.2 °F 37.0 °F 37.4 °F 93% 29.58 in 0.2 mi SSE 3.5 mph - N/A Fog Fog
9:55 PM 41.0 °F - 41.0 °F 100% 29.58 in 0.2 mi Calm Calm - N/A Fog Fog
10:15 PM 41.0 °F 39.0 °F 41.0 °F 100% 29.57 in 0.2 mi SSE 3.5 mph - N/A Fog Fog
10:35 PM 42.8 °F 41.1 °F 41.0 °F 93% 29.55 in 0.2 mi South 3.5 mph - N/A Fog Fog
10:55 PM 42.8 °F 40.1 °F 41.0 °F 93% 29.55 in 0.5 mi South 4.6 mph - N/A Fog Fog
11:15 PM 42.8 °F 39.3 °F 42.8 °F 100% 29.54 in 1.0 mi South 5.8 mph - N/A   Overcast
11:35 PM 44.6 °F 40.7 °F 42.8 °F 93% 29.53 in 1.2 mi SSW 6.9 mph - N/A   Overcast
11:55 PM 44.6 °F 42.2 °F 42.8 °F 93% 29.53 in 1.5 mi SSW 4.6 mph - N/A   Overcast